Vertical_Velocity
-2 -1 -1 -1 -1 -1 -3 -1 -1 -1 -1 -0 -1 -2 -1 -0 -2 -1 -1 -4 -3 -1 0 -1 -1 -0 3 4 -0 4 -3 -7 -7 4 -14 0 2 12 1 -4 1 1 8 -17 -3
-1 -1 -1 -0 -1 -2 -2 -2 -2 -2 -3 -3 -1 -0 -1 -3 -2 -1 -3 -1 -1 -3 1 -0 -1 -0 2 -2 0 4 -2 -4 -2 -4 -6 -8 5 -0 0 1 -3 -3 4 15 3
-1 -1 0 -1 -1 -2 1 -4 -3 -1 -1 -0 -2 -2 -3 -3 -2 -2 -1 1 -1 1 -1 -3 -1 -3 -1 -1 0 -2 0 -0 -1 2 6 -3 -2 4 -4 -8 -6 -1 4 -18 -9
1 -1 -1 -1 1 -0 -1 -2 -1 -1 -2 -2 1 -1 -1 -4 -4 -1 -0 -0 -2 -3 0 1 -1 -5 0 -2 -5 -3 2 5 -3 -1 3 1 -2 -10 5 -25 4 -6 -0 -10 -10
-1 1 -2 0 -0 -1 -0 -0 -2 1 -2 -2 -3 -3 -3 -2 -1 1 -2 -3 -3 1 1 1 1 3 -4 1 -1 -3 -5 6 1 -1 4 5 1 -3 -6 2 1 -8 10 -9 -13
-3 0 -1 -3 -0 1 -1 0 -1 2 -1 -1 2 -1 -2 -2 -2 -2 -4 3 -3 -1 -2 -2 -4 -2 -1 -1 -1 4 3 -0 -1 -1 1 6 -0 1 4 2 -4 -9 -12 -5 -10
-1 -0 -2 -1 1 -0 -2 1 1 -0 -3 -1 2 -1 1 -1 -3 -4 1 -2 -3 -1 -4 -2 -2 2 -1 -5 2 -2 -10 5 3 -4 -1 1 -3 8 5 -1 2 4 -4 3 11
-1 1 -2 -3 -1 -1 -0 -1 -0 -0 -3 -3 1 1 1 -3 -4 0 3 -4 -3 -0 0 1 4 -3 -5 -3 -3 -10 -0 -14 2 -4 5 2 0 -10 4 -1 7 15 -2 -12 -59
-1 0 1 -2 -3 -2 -1 -2 2 1 -3 -3 -0 -0 -2 -1 6 -4 -4 -2 -0 2 0 0 -2 -3 -1 -8 -7 -2 -6 0 -9 3 1 1 -4 -0 4 -2 -2 10 9 15 10
-0 -1 -0 -0 -2 -0 -1 -1 -2 0 -3 -5 -3 -2 -5 -0 -2 -4 -4 -1 -0 -3 -3 -4 -8 4 -5 -5 1 -5 -7 -1 4 -5 -3 5 2 1 2 9 -1 -11 1 3 -3
1 -4 1 -0 -2 -0 -2 0 1 -1 -2 -1 0 -0 5 -1 -4 -0 2 -3 -1 -0 -5 -2 1 -11 -0 3 6 3 3 -2 6 2 2 0 -1 2 4 6 13 -0 3 -9 -12
-0 -1 1 -3 -1 1 -3 -1 1 3 1 -1 -2 -3 -5 -2 -1 1 -3 -5 -4 -8 -4 -1 -5 3 3 1 4 1 1 -2 1 3 1 4 -2 5 2 3 6 16 -2 -1 -11
-1 -1 1 -1 -2 1 -1 -1 -2 -1 -2 -2 -1 -2 -9 -3 -5 -7 -3 -3 -5 -4 -4 -5 2 -2 2 -1 -9 4 -1 -1 5 -3 0 2 8 -3 -6 9 19 3 2 14 18
-2 -0 1 1 -1 2 0 0 0 1 -1 -3 -2 -4 2 -1 -5 -6 -6 -4 -3 -2 1 -1 -3 -4 -5 7 1 -2 2 4 -1 -3 -1 8 3 -10 -6 -0 12 -7 -5 -3 -10
1 -0 1 -0 -1 -1 -0 -1 2 2 -6 -3 -5 -4 -5 -0 -1 -4 -5 -4 -3 -3 -2 0 -1 -10 -10 -2 1 2 -2 1 -2 0 -1 -0 -5 -6 -0 -7 -9 1 5 -10 -5
-1 0 1 2 -0 -3 -1 2 -0 1 -5 -2 0 -1 2 0 -3 -2 -7 -1 -8 -4 -4 -4 -4 -1 6 7 -1 2 2 -1 2 0 -5 5 1 0 -23 -2 2 5 -0 3 12
-1 -2 2 3 -1 -4 -0 -0 -1 0 0 -2 -2 -2 -2 -4 -2 -5 -6 -10 -14 -9 -9 0 1 -2 -10 -5 9 8 -7 -5 -8 -9 3 5 -8 2 5 -0 -2 -2 -2 3 -3
-1 -2 1 1 4 -3 -2 0 1 -1 -1 0 -2 -2 -2 -4 -5 -3 -3 -5 -6 -5 -2 -6 -16 -12 -2 -2 -1 2 -7 -1 -1 -0 -2 3 0 2 7 3 -11 2 -2 1 6
2 -4 2 -2 3 -1 -1 -1 -1 -1 -1 -0 -1 -3 -3 -2 -3 -2 -2 -2 -3 -5 -6 -5 -0 6 3 4 -4 -4 -6 2 1 3 2 0 0 -5 -4 3 9 5 2 2 -1
3 -4 -3 -1 1 0 -1 0 -0 -1 -1 -2 -2 -4 -1 -2 -2 -3 -2 -1 -1 -3 -1 -1 -6 -2 -3 10 3 -1 2 0 -0 -5 -3 -1 0 -6 -8 -9 -8 -4 -12 2 -1
5 0 -1 0 4 1 -1 -1 -1 -1 -2 0 -2 -3 -1 -2 -4 -2 -2 -2 -0 1 2 -0 -2 2 -3 -4 -0 -12 -6 -4 1 2 -2 0 -1 3 0 3 -1 -6 -17 -2 11
2 -5 -1 -2 5 -0 -1 0 0 -0 -4 0 -2 -2 -1 -0 -4 -1 -1 -1 0 -5 -3 -0 -2 -1 -1 -2 -0 -0 0 1 1 -4 1 3 -4 -1 -2 -2 -1 16 6 5 0
2 -3 3 -3 4 -1 -3 -1 -1 0 -2 -3 -3 -2 -2 1 -2 -1 -2 -1 0 -4 -2 1 -1 -4 -4 1 0 -5 -3 9 0 2 0 1 -3 2 4 6 2 -3 2 -7 -5
-1 2 5 -2 3 0 -0 0 -3 -3 1 -3 -1 -3 -4 0 -2 -1 -1 -2 -1 0 1 3 -3 1 -2 1 0 -5 -1 -1 0 -0 -0 0 -10 -0 -1 -4 0 -0 2 3 0
1 -3 2 0 2 -1 -1 1 -3 -1 -0 1 1 -3 -4 -0 -2 -1 0 -2 -0 -1 -3 -1 -3 0 0 -1 0 1 -1 -3 1 -1 -0 -2 -1 -1 -3 -2 -4 -3 -1 3 3
-1 -10 -2 4 1 -1 2 -1 -0 -3 -3 1 -2 -3 1 -0 -1 -0 1 -2 -2 -3 -4 -0 0 -1 0 -2 -3 0 0 2 0 5 -1 -1 2 2 5 3 4 2 -7 -1 4
2 4 -10 3 1 0 1 1 1 -2 -1 2 -0 -4 3 -2 -2 1 1 -1 -2 -3 -2 -1 1 -1 0 0 -1 -0 -1 1 -1 3 2 -3 -2 0 4 2 3 -0 -2 5 -2
Height
3149 3146 3143 3141 3137 3134 3130 3126 3121 3117 3113 3109 3106 3103 3100 3097 3093 3090 3084 3078 3071 3064 3060 3056 3051 3048 3044 3042 3040 3037 3035 3028 3025 3024 3018 3017 3015 3014 3013 3011 3012 3013 3013 3014 3012
3149 3146 3143 3139 3136 3133 3130 3125 3120 3116 3112 3108 3105 3102 3099 3095 3091 3087 3082 3076 3069 3062 3057 3052 3048 3046 3043 3040 3036 3034 3030 3026 3022 3019 3013 3011 3010 3009 3009 3008 3007 3008 3009 3003 3006
3149 3145 3142 3138 3135 3132 3128 3124 3120 3115 3110 3107 3104 3101 3098 3094 3090 3086 3081 3075 3068 3060 3055 3049 3043 3041 3039 3036 3032 3029 3027 3023 3020 3016 3012 3007 3005 3006 3005 3003 3006 3005 3004 3000 2999
3148 3145 3141 3137 3134 3131 3126 3123 3118 3113 3109 3106 3103 3101 3098 3094 3091 3084 3080 3073 3063 3056 3051 3046 3043 3040 3037 3034 3031 3026 3024 3020 3016 3011 3007 3003 3000 2999 3000 3002 3005 3004 3002 2994 2994
3147 3144 3141 3137 3132 3130 3126 3121 3117 3112 3108 3104 3102 3100 3098 3094 3091 3083 3074 3067 3061 3055 3051 3045 3041 3038 3035 3032 3027 3024 3020 3016 3014 3010 3006 3002 2999 2997 2996 3000 3002 3001 3000 2995 2994
3146 3143 3140 3136 3132 3128 3125 3120 3115 3111 3107 3104 3101 3099 3096 3091 3086 3078 3068 3065 3061 3055 3049 3043 3040 3038 3037 3033 3028 3024 3019 3014 3012 3009 3005 3000 2997 2996 2996 2995 2999 3001 2996 2992 2991
3143 3141 3138 3134 3131 3127 3123 3118 3114 3109 3105 3103 3101 3097 3094 3090 3081 3076 3070 3063 3058 3052 3047 3041 3038 3036 3034 3032 3028 3023 3019 3015 3012 3009 3005 3001 3000 2999 2998 2996 2997 2999 2999 2994 2996
3140 3139 3136 3133 3129 3125 3121 3116 3112 3108 3104 3102 3100 3096 3093 3086 3079 3075 3074 3065 3057 3051 3045 3041 3039 3037 3033 3031 3027 3023 3020 3015 3013 3009 3007 3004 3003 2999 2996 2993 2994 2996 2999 2996 2997
3138 3136 3134 3131 3128 3123 3120 3114 3110 3106 3103 3102 3101 3096 3092 3088 3086 3076 3069 3063 3056 3050 3046 3043 3041 3037 3033 3025 3022 3020 3019 3017 3012 3011 3008 3006 3004 2999 2995 2992 2987 2990 2992 2994 2999
3136 3134 3132 3129 3126 3122 3118 3113 3108 3104 3102 3101 3100 3097 3093 3089 3082 3075 3068 3062 3056 3050 3047 3044 3040 3036 3031 3026 3024 3019 3016 3016 3014 3011 3009 3006 3004 3000 2996 2994 2990 2983 2983 2986 2985
3134 3132 3130 3126 3124 3120 3116 3112 3110 3105 3102 3100 3098 3096 3093 3087 3081 3076 3069 3062 3057 3051 3046 3042 3040 3034 3031 3029 3027 3023 3018 3016 3014 3013 3009 3006 3004 3000 2997 2992 2987 2989 2987 2989 2993
3132 3130 3127 3125 3122 3118 3114 3110 3106 3105 3101 3100 3097 3093 3088 3082 3079 3074 3069 3062 3055 3049 3047 3045 3040 3038 3036 3030 3027 3023 3019 3015 3012 3012 3010 3008 3005 3002 2995 2994 2989 2992 2996 2998 3000
3129 3128 3125 3122 3119 3116 3112 3108 3103 3099 3100 3100 3096 3092 3087 3081 3075 3069 3065 3060 3054 3049 3046 3045 3045 3040 3035 3028 3022 3021 3019 3014 3013 3008 3008 3007 3004 3000 2999 2994 2992 2990 2990 2992 2995
3127 3124 3122 3120 3119 3114 3110 3105 3101 3098 3097 3099 3095 3091 3088 3081 3077 3070 3066 3061 3055 3052 3047 3046 3044 3039 3036 3029 3025 3017 3016 3012 3009 3010 3008 3007 3007 3003 2998 2996 2990 2991 2992 2992 2994
3124 3122 3119 3116 3114 3111 3109 3103 3099 3098 3099 3099 3094 3090 3086 3085 3082 3075 3067 3061 3058 3055 3052 3049 3042 3036 3035 3030 3026 3021 3013 3011 3011 3011 3010 3009 3009 3013 3004 2995 2996 2999 2998 2998 2998
3120 3119 3116 3114 3111 3109 3105 3102 3099 3099 3095 3095 3093 3089 3086 3082 3080 3075 3071 3064 3059 3055 3050 3048 3045 3042 3037 3031 3027 3021 3013 3012 3012 3012 3013 3014 3012 3012 3005 3008 3000 2996 2991 2990 2991
3116 3115 3113 3111 3109 3107 3103 3101 3101 3095 3098 3096 3092 3088 3085 3081 3078 3073 3067 3060 3057 3054 3051 3049 3046 3043 3039 3030 3027 3019 3012 3015 3018 3020 3020 3018 3017 3023 3019 3009 3003 2995 2995 2995 2997
3112 3111 3110 3108 3106 3104 3102 3100 3097 3096 3094 3093 3090 3087 3084 3081 3078 3074 3070 3064 3061 3059 3055 3052 3048 3047 3041 3037 3033 3028 3025 3028 3035 3031 3025 3021 3025 3023 3021 3017 3007 3001 2996 2993 2991
3107 3107 3107 3105 3103 3101 3100 3099 3096 3095 3094 3092 3089 3087 3085 3081 3079 3074 3071 3067 3064 3061 3061 3056 3053 3052 3048 3042 3036 3033 3031 3033 3031 3029 3027 3027 3027 3024 3020 3013 3009 3000 2993 2989 2993
3102 3101 3103 3102 3100 3099 3098 3097 3095 3093 3092 3090 3089 3087 3084 3081 3079 3076 3073 3072 3068 3065 3063 3061 3055 3053 3052 3049 3044 3040 3038 3036 3035 3040 3041 3029 3028 3027 3014 3009 3003 2996 2997 2996 2997
3097 3096 3098 3098 3097 3096 3095 3094 3092 3091 3091 3090 3087 3085 3083 3080 3078 3077 3076 3074 3070 3067 3065 3060 3060 3057 3053 3051 3047 3044 3038 3040 3039 3041 3043 3038 3034 3029 3022 3015 3012 3008 3003 2997 2994
3091 3091 3093 3095 3095 3092 3092 3092 3092 3089 3089 3089 3088 3085 3081 3078 3077 3077 3076 3074 3072 3068 3066 3063 3061 3057 3055 3054 3052 3050 3048 3045 3044 3044 3043 3041 3038 3032 3029 3023 3015 3011 3006 2998 2994
3085 3087 3089 3091 3090 3088 3090 3089 3089 3087 3086 3086 3086 3084 3082 3079 3078 3076 3074 3073 3071 3068 3065 3063 3061 3058 3055 3055 3052 3051 3051 3050 3045 3044 3044 3044 3039 3034 3029 3022 3016 3010 3004 2998 2996
3082 3083 3084 3086 3086 3085 3086 3086 3087 3087 3085 3084 3084 3082 3081 3079 3078 3075 3073 3072 3070 3069 3067 3065 3064 3062 3061 3059 3054 3052 3052 3051 3048 3046 3043 3042 3036 3033 3027 3022 3017 3012 3005 3001 2999
3077 3076 3078 3081 3081 3081 3084 3083 3083 3086 3085 3083 3081 3080 3079 3077 3076 3075 3072 3070 3069 3069 3067 3065 3063 3062 3061 3061 3060 3055 3053 3051 3050 3048 3045 3042 3038 3033 3027 3021 3018 3012 3007 3002 2997
3072 3073 3074 3078 3079 3079 3079 3078 3080 3082 3085 3083 3080 3079 3077 3075 3076 3075 3070 3068 3068 3068 3066 3065 3062 3059 3058 3058 3058 3056 3054 3052 3050 3048 3045 3042 3038 3035 3030 3024 3020 3015 3010 3004 3001
3066 3068 3068 3074 3074 3078 3075 3076 3078 3079 3082 3082 3078 3077 3075 3074 3073 3073 3070 3068 3067 3067 3066 3065 3062 3057 3054 3053 3052 3056 3055 3052 3049 3046 3045 3040 3037 3032 3029 3024 3019 3015 3012 3008 3002